BEIDOU-3S IGSO-1S

Last updated on Sun Sep 06 2026 00:02:58 GMT+0000 (Coordinated Universal Time)

1 40549U 15019A 26248.09766900 -.00000156 00000+0 00000+0 0 9998 2 40549 49.0421 294.4936 0039230 200.0984 340.1764 1.00290531 41877
UTC large
Height (km)
Speed (km/s)
/
Latitude / Longitude
Inclination (degrees)
Orbital Period (minutes)
Azimuth
Elevation
Range (km)
Doppler Factor

Next 0 passes for location: London (51.5072 / 0.1276)

No passes found over London.
BEIDOU-3S IGSO-1S